Simultaneous Nadir Overpasses (SNOs) Predictions

Prediction of SNOs between TERRA and METOP-C Satellite Orbit:

Table of predicted SNOs for the next 14.0 days since TLE Epoch: 2/13/2025
Index Date (TERRA) Time (TERRA) Lat,Lon (TERRA) SZA (TERRA ) Date (METOP-C) Time (METOP-C) Lat,Lon (METOP-C) SZA (METOP-C ) Distance(km) Time Diff (sec)
1 02/15/2025 22:44:49 -73.96, 132.41 72.63 02/15/2025 22:43:36 -73.65, 130.64 73.12 64.44 73
2 02/15/2025 23:49:38 47.02, 154.00 65.78 02/15/2025 23:50:11 46.93, 154.58 65.43 45.20 33
3 02/18/2025 12:26:16 79.11, 89.41 101.70 02/18/2025 12:25:03 78.63, 87.35 101.24 69.20 73
4 02/18/2025 13:05:35 -45.65, -61.91 53.68 02/18/2025 13:05:25 -45.54, -62.51 54.05 47.38 10
5 02/18/2025 13:54:48 45.12, 105.93 126.62 02/18/2025 13:55:59 44.95, 105.04 126.29 72.78 71
6 02/21/2025 02:08:10 -81.99, 14.84 85.38 02/21/2025 02:06:57 -81.31, 15.33 85.86 75.37 73
7 02/21/2025 02:45:16 45.75, -86.91 125.58 02/21/2025 02:45:04 45.64, -87.45 125.24 43.63 12
8 02/21/2025 03:34:23 -45.11, 80.99 54.06 02/21/2025 03:35:30 -44.98, 80.14 54.38 68.10 67
9 02/23/2025 15:49:18 79.83, -43.35 89.52 02/23/2025 15:48:05 79.28, -40.87 89.05 79.63 73
10 02/23/2025 16:24:55 -45.96,-111.93 55.25 02/23/2025 16:24:39 -45.85,-112.42 55.55 39.46 16
11 02/23/2025 17:14:02 45.08, 56.04 125.28 02/23/2025 17:15:07 44.92, 55.25 125.01 64.26 65
12 02/26/2025 05:30:14 -76.40, -84.61 95.01 02/26/2025 05:29:01 -75.95, -82.08 95.49 83.49 73
13 02/26/2025 06:04:35 46.03,-136.92 124.01 02/26/2025 06:04:18 45.93,-137.36 123.73 36.08 17



Historial Predications of SNOs between TERRA and METOP-C
